[[{"header":{"parameterUnit":"m.s-1","parameterCategory":1,"la1":30.2991,"la2":30.254,"lo1":-89.0895,"lo2":-89.0444,"dy":0.0017,"dx":0.0017,"nx":28,"ny":28,"refTime":"2024-07-02T09:00:00:Z","depth":0,"parameterNumber":2,"parameterNumberName":"U-component_of_WINDS"},"data":[0,0,0,0,0,0,0,0,0,0,0,0,0,0,0,0,0,0,0,0,0,0,0,0,0,0,0,0,0,0,0,0,0,0,0,0,0,0,0,0,0,0,0,0,0,0,0,0,0,0,0,0,0,0,0,0,0,0,1.1669,1.1669,0,1.1671,1.1671,1.1671,1.1626,1.1625,1.1624,1.1623,1.1625,1.1626,1.1627,0,0,0,0,0,0,0,0,0,0,0,0,0,1.1627,1.1628,1.1669,1.1669,1.1669,1.1671,1.1671,1.1671,1.1627,1.1625,1.1624,1.1622,1.1624,1.1626,1.1627,0,0,0,0,0,0,0,0,0,0,0,0,0,1.1639,1.1629,1.1669,1.1647,1.1645,1.1671,1.1671,1.1671,1.1627,1.1625,1.1623,1.1622,1.1624,1.1626,1.1627,1.1673,0,0,1.1633,1.1633,0,0,0,0,0,0,0,0,1.1638,1.164,1.1651,1.1649,1.1647,1.1646,1.1656,1.1672,1.1627,1.1634,1.1623,1.1621,1.1634,1.1634,1.1639,1.1674,1.1674,1.1633,1.1634,1.1635,1.1635,0,0,0,0,0,0,0,1.1637,1.164,1.167,1.1651,1.1648,1.1637,1.1637,1.1659,1.1644,1.1633,1.163,1.1631,1.1632,1.1637,1.1638,1.1674,1.1633,1.1634,1.1635,1.1636,1.1744,1.1746,0,0,0,0,0,0,1.164,1.164,1.167,1.167,1.1638,1.1639,1.1639,1.1648,1.1643,1.1641,1.1632,1.1629,1.1635,1.1636,1.1638,1.169,1.1635,1.1636,1.1637,1.1742,1.1744,1.1746,0,0,0,0,0,0,1.1639,1.1643,1.167,1.1654,1.1656,1.1642,1.1653,1.1649,1.1654,1.1643,1.164,1.164,1.1634,1.1636,1.1664,1.1689,1.1637,1.1639,1.174,1.1743,1.1745,1.1795,0,0,0,0,0,0,1.1638,1.1643,1.1661,1.1655,1.1657,1.1696,1.1654,1.1651,1.1657,1.1652,1.1649,1.1647,1.1632,1.1662,1.1666,1.1691,1.164,1.1737,1.1741,1.1744,1.1791,1.1799,1.1806,0,0,0,0,0,1.1637,1.1675,1.1662,1.1666,1.1679,1.1698,1.1699,1.1682,1.1659,1.1677,1.1669,1.1647,1.1686,1.1665,1.167,1.1695,1.1736,1.174,1.1744,1.1787,1.1797,1.1806,0,0,0,0,0,0,1.1685,1.1674,1.1659,1.1697,1.1698,1.169,1.1712,1.1693,1.1702,1.1697,1.1675,1.1674,1.1706,1.1704,1.1681,1.1738,1.1707,1.1712,1.1738,1.1748,1.1755,1.1754,1.1641,0,0,0,0,0,1.17,1.1716,1.1706,1.174,1.1741,1.1727,1.1734,1.172,1.1721,1.1722,1.1716,1.1718,1.173,1.1739,1.175,1.179,1.1788,1.181,1.1817,1.1824,1.1828,1.1847,1.1856,1.176,1.176,1.176,0,0,1.1732,1.1727,1.1739,1.175,1.1749,1.1766,1.1728,1.1747,1.1759,1.1725,1.1751,1.1747,1.1747,1.1781,1.1796,1.178,1.1854,1.1829,1.1834,1.1835,1.1852,1.1861,1.1869,1.1762,1.1762,1.1762,0,0,1.1797,1.1796,1.1823,1.1823,1.1823,1.1812,1.1819,1.1813,1.1809,1.1835,1.1809,1.1822,1.1845,1.1845,1.1849,1.1912,1.1892,1.1916,1.1955,1.1974,1.1981,1.1988,1.2009,1.2017,1.1921,1.1921,1.1921,0,1.1836,1.186,1.184,1.186,1.1865,1.1834,1.1861,1.1862,1.1866,1.1869,1.1851,1.1877,1.1876,1.1908,1.1923,1.1928,1.1934,1.1916,1.1982,1.1988,1.1994,1.2014,1.2022,1.1924,1.1924,1.1923,1.1923,0,1.1907,1.1924,1.1946,1.1948,1.1956,1.198,1.1962,1.1972,1.1957,1.1948,1.1974,1.1971,1.1979,1.1986,1.1973,1.2017,1.2006,1.1986,1.1954,1.2007,1.2024,1.2032,1.1928,1.1927,1.1926,1.1926,0,0,1.2003,1.1993,1.2002,1.2001,1.1998,1.201,1.2032,1.204,1.2048,1.2051,1.2068,1.2087,1.2067,1.207,1.2056,1.2073,1.2121,1.205,1.2049,1.2062,1.2167,1.2182,1.2191,1.2108,1.2109,1.211,1.2166,0,1.2065,1.2101,1.2083,1.2121,1.2135,1.2105,1.2124,1.2123,1.2115,1.2126,1.2117,1.213,1.2104,1.2105,1.2121,1.2112,1.2142,1.2108,1.2122,1.2123,1.2121,1.2201,1.2216,1.227,1.2174,1.2175,1.2176,0,1.2142,1.2147,1.2186,1.2178,1.2183,1.22,1.2205,1.2216,1.2214,1.2207,1.221,1.2191,1.2211,1.218,1.2206,1.2184,1.2188,1.2185,1.2186,1.2186,1.2152,1.2201,1.2287,1.2294,1.2187,1.2186,1.2185,0,1.2206,1.2223,1.2247,1.2249,1.224,1.2252,1.225,1.2246,1.2251,1.2255,1.2258,1.2265,1.2269,1.2274,1.2257,1.2237,1.2285,1.2253,1.2279,1.2279,1.229,1.2289,1.2376,1.2295,1.2295,1.2295,1.2295,0,1.2276,1.2301,1.2276,1.2291,1.2317,1.2296,1.2323,1.2316,1.2313,1.2326,1.2302,1.2314,1.2292,1.2302,1.229,1.2312,1.2314,1.2308,1.2304,1.231,1.231,1.2312,1.2307,1.2297,1.2297,1.2296,1.2296,0,1.2351,1.2336,1.2361,1.235,1.2348,1.2368,1.2358,1.2372,1.2362,1.2378,1.2381,1.2365,1.2376,1.236,1.2369,1.236,1.2391,1.2382,1.2391,1.2388,1.2414,1.2411,1.2504,1.2514,1.2428,1.2429,1.243,0,1.2396,1.2414,1.2405,1.2412,1.241,1.2421,1.2426,1.2405,1.2411,1.2409,1.2423,1.2431,1.2436,1.2455,1.2444,1.245,1.2441,1.2473,1.2441,1.2446,1.2439,1.2437,1.2438,1.2479,1.248,1.2481,1.2481,0,1.2477,1.2468,1.2476,1.248,1.2486,1.2489,1.249,1.2497,1.2475,1.2482,1.2493,1.2497,1.2505,1.2513,1.2517,1.2513,1.2493,1.2491,1.2497,1.2502,1.2506,1.2502,1.2407,1.2489,1.2488,1.2488,1.2487,1.2487,1.2538,1.2551,1.2546,1.2555,1.2553,1.2554,1.2565,1.2556,1.2564,1.2569,1.2556,1.2569,1.2565,1.2567,1.2566,1.2575,1.2561,1.257,1.2572,1.2575,1.2578,1.2506,1.2576,1.2576,1.2576,1.2576,1.2575,0,1.2615,1.261,1.2618,1.262,1.2626,1.2606,1.2606,1.2613,1.2624,1.2622,1.2627,1.2638,1.2645,1.2635,1.264,1.2649,1.264,1.2651,1.265,1.2649,1.2591,1.2584,1.2659,1.2659,1.2659,1.2659,1.2658,1.2658,1.2657,1.2678,1.2668,1.2688,1.2683,1.2694,1.2695,1.2696,1.2694,1.2707,1.2712,1.2705,1.2699,1.2704,1.2709,1.2706,1.2708,1.2722,1.2716,1.2661,1.2653,1.2645,1.2639,1.2723,1.2724,1.2772,1.2773,1.2773]},{"header":{"parameterUnit":"m.s-1","parameterCategory":1,"la1":30.2991,"la2":30.254,"lo1":-89.0895,"lo2":-89.0444,"dy":0.0017,"dx":0.0017,"nx":28,"ny":28,"refTime":"2024-07-02T09:00:00:Z","depth":0,"parameterNumber":3,"parameterNumberName":"V-component_of_WINDS"},"data":[0,0,0,0,0,0,0,0,0,0,0,0,0,0,0,0,0,0,0,0,0,0,0,0,0,0,0,0,0,0,0,0,0,0,0,0,0,0,0,0,0,0,0,0,0,0,0,0,0,0,0,0,0,0,0,0,0,0,4.7778,4.7779,0,4.7886,4.7888,4.7889,4.7862,4.786,4.7858,4.7856,4.7959,4.7963,4.7968,0,0,0,0,0,0,0,0,0,0,0,0,0,4.7537,4.7542,4.7777,4.7779,4.778,4.7886,4.7888,4.7889,4.7862,4.786,4.7857,4.7855,4.7957,4.7963,4.7969,0,0,0,0,0,0,0,0,0,0,0,0,0,4.7643,4.7543,4.7777,4.778,4.7781,4.7886,4.7888,4.7889,4.7863,4.786,4.7856,4.7854,4.7956,4.7962,4.7969,4.8076,0,0,4.7991,4.7994,0,0,0,0,0,0,0,0,4.7637,4.7652,4.7778,4.778,4.7781,4.7858,4.7841,4.7952,4.7864,4.7832,4.7856,4.7852,4.7927,4.7936,4.7963,4.808,4.8085,4.7991,4.7996,4.7999,4.8001,0,0,0,0,0,0,0,4.763,4.7647,4.782,4.778,4.7782,4.7772,4.7784,4.7862,4.7895,4.7834,4.7832,4.7846,4.7927,4.7957,4.7966,4.8086,4.7991,4.7998,4.8002,4.8005,4.8293,4.8297,0,0,0,0,0,0,4.7622,4.7641,4.7817,4.7823,4.77,4.7779,4.7792,4.7836,4.7894,4.7901,4.7849,4.7844,4.7946,4.7957,4.7969,4.8096,4.7999,4.8005,4.8009,4.829,4.8294,4.8298,0,0,0,0,0,0,4.7617,4.7638,4.7812,4.7732,4.7753,4.7787,4.7836,4.784,4.7869,4.7906,4.7911,4.7873,4.7944,4.7959,4.8049,4.8099,4.8008,4.8015,4.8286,4.8291,4.8296,4.8352,0,0,0,0,0,0,4.761,4.7637,4.768,4.7733,4.7758,4.7894,4.7839,4.7844,4.7882,4.7878,4.793,4.7935,4.7943,4.8039,4.8056,4.8107,4.802,4.8282,4.8288,4.8294,4.8345,4.8358,4.8369,0,0,0,0,0,4.7602,4.7689,4.7682,4.7703,4.7813,4.7897,4.7911,4.792,4.7887,4.7928,4.7952,4.7934,4.8091,4.8049,4.8068,4.8122,4.8278,4.8286,4.8294,4.834,4.8356,4.8369,0,0,0,0,0,0,4.7638,4.7697,4.7689,4.7797,4.7843,4.7892,4.7946,4.7936,4.799,4.7983,4.799,4.8001,4.8093,4.8116,4.8068,4.8226,4.818,4.8192,4.8208,4.8223,4.8234,4.8226,4.8026,0,0,0,0,0,4.7659,4.7726,4.7772,4.7862,4.7886,4.7912,4.7949,4.7952,4.7998,4.8017,4.8046,4.8089,4.8148,4.8187,4.8243,4.8349,4.8358,4.8395,4.8407,4.8416,4.8426,4.8481,4.8497,4.8323,4.8323,4.8323,0,0,4.7702,4.7743,4.7784,4.7871,4.7906,4.7972,4.7928,4.8,4.8047,4.8026,4.8114,4.8137,4.8185,4.8283,4.8328,4.8305,4.8476,4.8426,4.8433,4.8438,4.8491,4.8507,4.8522,4.8329,4.8328,4.8327,0,0,4.7814,4.7853,4.7932,4.7969,4.8024,4.8041,4.806,4.8111,4.8126,4.8215,4.82,4.8255,4.8358,4.8392,4.8423,4.8547,4.8532,4.8565,4.8626,4.8679,4.8693,4.8705,4.8748,4.8763,4.8575,4.8575,4.8575,0,4.786,4.7962,4.7973,4.8046,4.8084,4.8071,4.8149,4.8183,4.8253,4.8277,4.8252,4.8379,4.8411,4.8515,4.8546,4.8572,4.8591,4.8559,4.8691,4.8703,4.8714,4.8755,4.8771,4.8579,4.8578,4.8578,4.8578,0,4.8014,4.8084,4.8141,4.8212,4.8255,4.8331,4.835,4.8393,4.8392,4.841,4.8499,4.8536,4.8599,4.8625,4.8624,4.8729,4.8713,4.8689,4.8642,4.8734,4.8772,4.8788,4.8584,4.8583,4.8581,4.8581,0,0,4.8152,4.8228,4.8249,4.828,4.834,4.8392,4.8465,4.853,4.8565,4.8613,4.8672,4.8759,4.8737,4.8772,4.8775,4.8822,4.8916,4.8792,4.8793,4.8812,4.9031,4.9048,4.9066,4.8906,4.8909,4.8912,4.9027,0,4.8268,4.8401,4.8413,4.853,4.8593,4.8581,4.8644,4.8686,4.8705,4.8758,4.8778,4.8839,4.8806,4.8827,4.8873,4.8895,4.8959,4.8887,4.8959,4.8961,4.8946,4.9086,4.9105,4.9211,4.9042,4.9044,4.9046,0,4.8422,4.8477,4.8602,4.8652,4.8678,4.8736,4.8795,4.8847,4.8893,4.8903,4.8942,4.8938,4.901,4.8961,4.9059,4.9009,4.9039,4.9053,4.9058,4.9064,4.9009,4.9094,4.9246,4.9261,4.907,4.9068,4.9066,0,4.8508,4.8613,4.8701,4.8728,4.8789,4.8829,4.8855,4.8899,4.8936,4.8986,4.901,4.9067,4.9098,4.9141,4.9151,4.9115,4.9248,4.92,4.9256,4.9255,4.9283,4.9281,4.944,4.9305,4.9305,4.9304,4.9304,0,4.8636,4.8712,4.8741,4.8794,4.8878,4.889,4.8971,4.8995,4.9033,4.9089,4.9081,4.9133,4.9144,4.9197,4.9205,4.9284,4.9298,4.9306,4.9307,4.9306,4.9305,4.9325,4.9317,4.9309,4.9308,4.9307,4.9306,0,4.8746,4.8769,4.8863,4.8913,4.8928,4.8987,4.9028,4.9078,4.9096,4.9166,4.9183,4.921,4.9272,4.9287,4.936,4.9366,4.9458,4.9452,4.9443,4.9442,4.9496,4.949,4.9673,4.9696,4.9547,4.9548,4.955,0,4.8826,4.8884,4.8941,4.898,4.9009,4.907,4.9109,4.9121,4.9161,4.9217,4.926,4.9321,4.9371,4.9471,4.9494,4.955,4.9544,4.9605,4.9552,4.9549,4.9543,4.9539,4.9544,4.9614,4.9615,4.9617,4.9618,0,4.8964,4.8972,4.903,4.9091,4.9138,4.9186,4.9232,4.9263,4.9281,4.9326,4.9391,4.943,4.9505,4.9566,4.9621,4.9645,4.9634,4.9634,4.965,4.9649,4.9641,4.9644,4.9469,4.963,4.9628,4.9628,4.9627,4.9627,4.906,4.9111,4.9159,4.9223,4.9259,4.9302,4.9352,4.9376,4.9432,4.9496,4.9499,4.9569,4.9611,4.9685,4.9712,4.9764,4.9746,4.9768,4.9774,4.9779,4.9783,4.9634,4.9775,4.9774,4.9774,4.9774,4.9773,0,4.9197,4.9227,4.9286,4.9352,4.9401,4.9389,4.9439,4.948,4.9543,4.9584,4.9634,4.9707,4.9766,4.9794,4.9851,4.9888,4.9884,4.9902,4.9899,4.9904,4.9797,4.9778,4.9904,4.9904,4.9904,4.9904,4.9904,4.9904,4.9273,4.9359,4.9373,4.9475,4.9504,4.9574,4.9603,4.9642,4.9675,4.9758,4.9808,4.9827,4.9862,4.9922,4.9974,4.998,5.0001,5.0021,5.0025,4.9925,4.9912,4.9899,4.988,5.0026,5.0026,5.0127,5.0128,5.0129]}]]